Date String (YYYY-MM-DD hh:mm:ss) UTC,Instrument flags,Ambient pressure (hPa),Sample flow (lpm),Bypass flow (lpm),Sample temperature (°C),Ambient temperature (°C),ASC tube jacket temperature (°C),LED temperature (°C),Box temperature (°C),Sample RH (%),Span deviation,Mass concentration (μg/m³),Mass concentration (μg/m³),Mass concentration (μg/m³)
DateTimeUTC,F1_M11,P_M11,Q1_M11,Q2_M11,T1_M11,T2_M11,T3_M11,T4_M11,T5_M11,U1_M11,ZSPAN_M11,X0_M11,X2_M11,X1_M11
2022-06-18 16:00:00,,0825.2,5.00,0.00,29.1,27.9,00.0,37.9,31.1,29.6,0002.1,0016.85,0010.06,0008.49
2022-06-18 16:01:00,,0825.2,5.00,0.00,29.1,28.1,00.0,37.9,31.1,29.4,0002.3,0017.08,0010.12,0008.52
2022-06-18 16:02:00,,0825.1,5.00,0.00,29.2,28.2,00.0,38.0,31.2,29.4,0002.3,0016.93,0010.13,0008.57
2022-06-18 16:03:00,,0825.2,5.00,0.00,29.2,28.3,00.0,38.0,31.2,29.2,0002.3,0016.88,0010.19,0008.60
2022-06-18 16:04:00,,0825.2,5.00,0.00,29.3,28.4,00.0,38.0,31.3,29.0,0002.1,0016.66,0010.21,0008.65
2022-06-18 16:05:00,,0825.2,5.00,0.00,29.3,28.4,00.0,38.0,31.3,28.9,0002.3,0015.94,0010.18,0008.68
2022-06-18 16:06:00,,0825.2,4.99,0.00,29.3,28.1,00.0,38.0,31.2,28.9,0002.8,0015.82,0010.22,0008.72
2022-06-18 16:07:00,,0825.2,5.00,0.00,29.2,27.2,00.0,37.9,31.0,29.1,0003.0,0015.80,0010.22,0008.75
2022-06-18 16:08:00,,0825.2,5.01,0.00,29.2,26.8,00.0,37.9,30.9,29.2,0003.5,0015.75,0010.23,0008.76
2022-06-18 16:09:00,,0825.1,5.00,0.00,29.1,26.8,00.0,37.9,30.8,29.3,0004.0,0015.96,0010.28,0008.77
2022-06-18 16:10:00,,0825.1,5.00,0.00,29.0,26.9,00.0,37.9,30.8,29.2,0003.9,0016.24,0010.31,0008.77
2022-06-18 16:11:00,,0825.1,4.99,0.00,29.0,27.1,00.0,37.9,30.9,29.1,0003.5,0016.21,0010.30,0008.76
2022-06-18 16:12:00,,0825.1,5.01,0.00,29.0,27.2,00.0,37.9,30.9,28.9,0003.2,0015.92,0010.25,0008.75
2022-06-18 16:13:00,,0825.2,5.02,0.00,29.0,27.4,00.0,37.9,30.9,28.8,0003.0,0015.68,0010.24,0008.75
2022-06-18 16:14:00,,0825.1,5.00,0.00,29.0,27.6,00.0,37.9,31.0,28.8,0002.9,0015.72,0010.20,0008.74
2022-06-18 16:15:00,,0825.1,5.00,0.00,29.1,27.8,00.0,37.9,31.0,28.8,0003.5,0016.41,0010.25,0008.74
2022-06-18 16:16:00,,0825.1,5.00,0.00,29.1,27.9,00.0,37.9,31.1,28.7,0003.3,0017.00,0010.30,0008.76
2022-06-18 16:17:00,,0825.1,5.01,0.00,29.1,28.0,00.0,37.9,31.1,28.3,0003.0,0017.22,0010.34,0008.78
2022-06-18 16:18:00,,0825.1,5.00,0.00,29.1,28.1,00.0,37.9,31.2,28.1,0002.6,0017.24,0010.40,0008.80
2022-06-18 16:19:00,,0825.1,5.00,0.00,29.2,28.3,00.0,37.9,31.2,28.0,0002.3,0017.25,0010.42,0008.84
2022-06-18 16:20:00,,0825.1,5.01,0.00,29.2,28.4,00.0,38.0,31.3,27.9,0002.0,0017.08,0010.38,0008.88
2022-06-18 16:21:00,,0825.1,5.00,0.00,29.3,28.4,00.0,38.0,31.3,27.7,0002.3,0016.80,0010.38,0008.91
2022-06-18 16:22:00,,0825.2,5.01,0.00,29.3,28.1,00.0,37.9,31.2,27.7,0003.1,0017.03,0010.46,0008.97
2022-06-18 16:23:00,,0825.1,4.99,0.00,29.2,27.3,00.0,37.9,31.0,27.7,0003.3,0017.15,0010.52,0009.00
2022-06-18 16:24:00,,0825.1,5.00,0.00,29.1,26.9,00.0,37.9,30.9,27.6,0003.4,0017.22,0010.55,0009.02
2022-06-18 16:25:00,,0825.1,5.01,0.00,29.1,26.8,00.0,37.9,30.8,27.7,0003.2,0017.27,0010.61,0009.06
2022-06-18 16:26:00,,0825.1,4.99,0.00,29.0,26.9,00.0,37.8,30.8,27.9,0002.8,0017.06,0010.61,0009.08
2022-06-18 16:27:00,,0825.1,5.00,0.00,29.0,27.1,00.0,37.8,30.8,27.9,0002.4,0016.45,0010.57,0009.08
2022-06-18 16:28:00,,0825.1,4.99,0.00,29.0,27.3,00.0,37.8,30.9,28.0,0002.2,0016.28,0010.57,0009.09
2022-06-18 16:29:00,,0825.1,5.00,0.00,29.0,27.5,00.0,37.8,30.9,28.1,0002.5,0016.12,0010.52,0009.09
2022-06-18 16:30:00,,0825.2,5.01,0.00,29.0,27.6,00.0,37.8,31.0,28.0,0002.2,0016.16,0010.54,0009.09
2022-06-18 16:31:00,,0825.1,4.99,0.00,29.1,27.8,00.0,37.9,31.0,28.0,0001.9,0016.32,0010.58,0009.09
2022-06-18 16:32:00,,0825.1,5.00,0.00,29.1,27.9,00.0,37.9,31.1,28.1,0001.8,0016.22,0010.60,0009.09
2022-06-18 16:33:00,,0825.1,5.00,0.00,29.1,28.1,00.0,37.9,31.1,28.2,0001.2,0016.15,0010.57,0009.06
2022-06-18 16:34:00,,0825.1,5.00,0.00,29.2,28.2,00.0,37.9,31.2,28.1,0000.9,0016.72,0010.60,0009.06
2022-06-18 16:35:00,,0825.2,5.01,0.00,29.2,28.3,00.0,37.9,31.2,28.0,0001.0,0016.58,0010.55,0009.06
2022-06-18 16:36:00,,0825.2,5.00,0.00,29.2,28.4,00.0,37.9,31.3,28.0,0001.3,0016.38,0010.50,0009.05
2022-06-18 16:37:00,,0825.1,4.99,0.00,29.2,28.0,00.0,37.9,31.2,27.9,0001.6,0016.05,0010.42,0009.04
2022-06-18 16:38:00,,0825.1,5.01,0.00,29.2,27.1,00.0,37.9,30.9,28.1,0002.2,0015.97,0010.41,0009.02
2022-06-18 16:39:00,,0825.2,4.99,0.00,29.1,26.8,00.0,37.8,30.8,28.3,0001.8,0016.04,0010.38,0009.00
2022-06-18 16:40:00,,0825.2,4.99,0.00,29.1,26.8,00.0,37.8,30.8,28.5,0001.3,0016.16,0010.41,0008.97
2022-06-18 16:41:00,,0825.1,5.01,0.00,29.0,26.9,00.0,37.8,30.8,28.5,0001.7,0016.12,0010.36,0008.94
2022-06-18 16:42:00,,0825.2,4.99,0.00,29.0,27.1,00.0,37.8,30.8,28.6,0002.2,0016.57,0010.33,0008.93
2022-06-18 16:43:00,,0825.2,4.99,0.00,29.0,27.3,00.0,37.8,30.9,28.6,0002.3,0016.71,0010.36,0008.92
2022-06-18 16:44:00,,0825.2,5.01,0.00,29.0,27.5,00.0,37.8,30.9,28.9,0002.7,0016.50,0010.31,0008.91
2022-06-18 16:45:00,,0825.2,5.01,0.00,29.0,27.7,00.0,37.8,31.0,29.0,0002.7,0016.16,0010.24,0008.89
2022-06-18 16:46:00,,0825.2,4.99,0.00,29.1,27.8,00.0,37.8,31.0,29.2,0002.7,0015.96,0010.20,0008.86
2022-06-18 16:47:00,,0825.2,5.00,0.00,29.1,28.0,00.0,37.9,31.1,29.3,0002.4,0016.09,0010.22,0008.81
2022-06-18 16:48:00,,0825.2,4.99,0.00,29.1,28.1,00.0,37.9,31.1,29.5,0002.0,0016.02,0010.16,0008.76
2022-06-18 16:49:00,,0825.2,4.99,0.00,29.2,28.2,00.0,37.9,31.2,29.8,0001.8,0015.99,0010.17,0008.73
2022-06-18 16:50:00,,0825.2,5.00,0.00,29.2,28.3,00.0,37.9,31.2,29.9,0002.2,0016.32,0010.16,0008.71
2022-06-18 16:51:00,,0825.2,5.00,0.00,29.2,28.3,00.0,37.9,31.2,30.0,0002.5,0016.41,0010.13,0008.71
2022-06-18 16:52:00,,0825.2,5.00,0.00,29.2,27.6,00.0,37.9,31.1,30.3,0002.5,0016.57,0010.14,0008.70
2022-06-18 16:53:00,,0825.1,5.00,0.00,29.1,27.1,00.0,37.8,30.9,30.3,0002.6,0016.70,0010.16,0008.67
2022-06-18 16:54:00,,0825.2,5.01,0.00,29.1,27.0,00.0,37.8,30.9,29.9,0002.7,0017.63,0010.07,0008.64
2022-06-18 16:55:00,,0825.1,5.00,0.00,29.1,27.1,00.0,37.8,30.9,29.8,0002.3,0017.81,0010.09,0008.61
2022-06-18 16:56:00,,0825.1,4.99,0.00,29.0,27.2,00.0,37.8,30.9,29.8,0002.8,0017.86,0010.17,0008.59
2022-06-18 16:57:00,,0825.2,4.99,0.00,29.0,27.4,00.0,37.8,30.9,29.7,0002.8,0017.82,0010.18,0008.60
2022-06-18 16:58:00,,0825.2,5.00,0.00,29.1,27.6,00.0,37.8,31.0,29.9,0002.7,0017.77,0010.19,0008.61
2022-06-18 16:59:00,,0825.2,5.00,0.00,29.1,27.8,00.0,37.9,31.0,29.9,0002.7,0017.95,0010.24,0008.60
